#timestamp,LO_Frequency,Hit,StdDev 
1602981295.3,286046991.5,P
1602981315.2,286046991.2,P
1602981335.9,286046990.9,P
1602981355.7,286046991.4,Y
1602981375.6,286046998.8,P
1602981395.4,286046998.7,N
1602981415.3,286046999.3,N
1602981435.1,286046998.9,N
1602981436.0,286046998.9,N
1602981455.8,286046995.3,N
1602981475.7,286046995.3,N
1602981495.5,286046997.2,N
1602981515.3,286046999.5,N
1602981535.2,286046996.2,N
1602981555.0,286046995.2,N
1602981555.9,286046995.2,N
1602981575.8,286046995.2,N
1602981595.6,286046995.8,N
1602981615.4,286046994.3,N
1602981635.3,286046993.9,N
1602981655.1,286046996.3,N
1602981675.8,286046996.1,N
1602981695.7,286046995.0,N
1602981715.5,286046994.1,N
1602981735.4,286046995.8,N
1602981755.2,286046994.4,N
1602981775.0,286046992.9,Y
1602981775.9,286046992.9,P
1602981795.8,286046996.7,N
1602981815.6,286046996.7,N
1602981835.4,286046996.7,N
1602981855.3,286046997.0,N
1602981875.1,286046998.4,N
1602981895.9,286046999.5,N
1602981915.7,286047001.2,N
1602981935.5,286046998.9,N
1602981955.4,286047000.9,N
1602981975.2,286046999.5,N
1602981995.0,286046996.6,N
1602981996.0,286046996.6,N
1602982015.8,286046999.4,N
1602982035.6,286046999.6,N
1602982055.5,286046996.8,N
1602982075.3,286046999.0,N
1602982095.1,286046999.6,N
1602982115.9,286046996.8,N
1602982135.7,286046999.2,N
1602982155.6,286046999.1,N
1602982175.4,286046996.9,N
1602982195.2,286046997.3,N
1602982215.1,286046997.5,N
1602982216.0,286046997.5,N
1602982235.8,286046997.9,N
1602982255.6,286046997.0,N
1602982275.5,286046997.0,N
1602982295.3,286046996.9,N
1602982315.2,286046998.7,N
1602982335.9,286047000.2,N
1602982355.7,286047000.3,N
1602982375.6,286047001.7,N
1602982395.4,286047001.3,N
1602982415.2,286047004.0,N
1602982435.1,286047001.4,N
1602982436.0,286047001.4,N
1602982455.8,286047000.1,N
1602982475.7,286047002.0,N
1602982495.5,286047004.4,N
1602982515.3,286047003.8,N
1602982535.2,286047003.8,N
1602982555.0,286047005.1,N
1602982555.9,286047005.1,N
1602982575.7,286047003.7,N
1602982595.6,286047000.4,N
1602982615.4,286046996.7,N
1602982635.3,286046998.5,N
1602982655.1,286047002.7,N
1602982675.8,286047000.0,N
1602982695.7,286047004.3,N
1602982715.5,286047001.8,N
1602982735.4,286047001.9,N
1602982755.2,286047004.3,N
1602982775.0,286047004.3,N
1602982775.9,286047004.3,N
1602982795.8,286047003.8,N
